Home   Weather   Dayton   Past weeks

Flag for USA Past Weather in Dayton, Ohio, USA — Yesterday and Last 2 Weeks

Now
37 °F

Overcast.


Feels Like: 33 °F
Forecast: 33 / 42 °F
Wind: 5 mph from West

Location: Dayton / Wright-Patterson Air Force Base

Current Time: Dec 3, 2016 at 4:51:18 am

Latest Report: Dec 3, 2016 at 3:58 am


Visibility: 10 mi

Pressure: 30.33 "Hg

Humidity: 78%

Dew Point: 31 °F

Location of DaytonLocation

Past Weather in Dayton — Graph

°F

Dayton Temperature Yesterday

Maximum temperature yesterday: 40 °F (at 3:58 pm)
Minimum temperature yesterday: 36 °F (at 7:58 am)
Average temperature yesterday: 38 °F

High & Low Weather Summary for the Past Weeks

 TemperatureHumidityPressure
High76 °F (Nov 18, 2:58 pm)100% (Nov 23, 11:58 pm)30.40 "Hg (Nov 23, 11:58 pm)
Low23 °F (Nov 22, 5:58 am)32% (Nov 18, 4:58 pm)29.44 "Hg (Nov 28, 11:58 pm)
Average42 °F73%30.08 "Hg
* Reported Nov 18 2:58 am — Dec 3 2:58 am, Dayton, Weather by CustomWeather, © 2016

Note: Actual official high and low records may vary slightly from our data, if they occured in-between our weather recording intervals... More about our weather records

Advertising

Dayton Weather History for the Previous 24 Hours

Scroll right to see more
 ConditionsComfort  
Time TempWeatherWind HumidityBarometerVisibility
2:58 am
Sat, Dec 3
37 °FOvercast.5 mph79%30.34 "Hg10 mi
1:58 am37 °FOvercast.3 mph77%30.32 "Hg10 mi
12:58 am37 °FOvercast.3 mph78%30.32 "Hg10 mi
11:58 pm
Fri, Dec 2
38 °FOvercast.6 mph74%30.32 "Hg10 mi
10:58 pm38 °FOvercast.7 mph74%30.32 "Hg10 mi
9:58 pm38 °FOvercast.6 mph77%30.32 "Hg10 mi
8:58 pm38 °FOvercast.9 mph78%30.30 "Hg10 mi
7:58 pm38 °FOvercast.9 mph73%30.29 "Hg10 mi
6:58 pm39 °FOvercast.14 mph68%30.26 "Hg10 mi
5:58 pm39 °FMostly cloudy.16 mph69%30.25 "Hg10 mi
4:58 pm39 °FOvercast.10 mph68%30.25 "Hg10 mi
3:58 pm40 °FMostly cloudy.10 mph70%30.23 "Hg10 mi
2:58 pm39 °FMostly cloudy.12 mph73%30.21 "Hg10 mi
1:58 pm39 °FMostly cloudy.9 mph73%30.20 "Hg10 mi
12:58 pm39 °FMostly cloudy.13 mph74%30.19 "Hg10 mi
11:58 am38 °FPartly sunny.10 mph77%30.20 "Hg10 mi
10:58 am38 °FMostly cloudy.10 mph77%30.19 "Hg10 mi
9:58 am36 °FOvercast.9 mph87%30.18 "Hg10 mi
8:58 am36 °FFog.8 mphN/A30.17 "Hg6 mi
7:58 am36 °FOvercast.8 mph84%30.16 "Hg10 mi
6:58 am37 °FOvercast.10 mph76%30.14 "Hg10 mi
5:58 am37 °FOvercast.9 mph76%30.11 "Hg10 mi
4:58 am37 °FOvercast.10 mph75%30.11 "Hg10 mi
Weather by CustomWeather, © 2016

See weather overviewHow to use our weather pages